EDT,Max TemperatureF,Mean TemperatureF,Min TemperatureF,Max Dew PointF,MeanDew PointF,Min DewpointF,Max Humidity, Mean Humidity, Min Humidity, Max Sea Level PressureIn, Mean Sea Level PressureIn, Min Sea Level PressureIn, Max VisibilityMiles, Mean VisibilityMiles, Min VisibilityMiles, Max Wind SpeedMPH, Mean Wind SpeedMPH, Max Gust SpeedMPH,PrecipitationIn, CloudCover, Events, WindDirDegrees
2011-10-1,75,65,55,45,39,32,67,40,21,30.03,29.97,29.90,10,10,10,18,7,26,0.00,0,,345
2011-10-2,75,60,46,45,37,32,81,47,21,30.13,30.07,30.03,10,10,10,8,4,,0.00,0,,335
2011-10-3,77,64,50,45,36,28,82,43,17,30.21,30.15,30.11,10,10,10,9,3,,0.00,0,,11
2011-10-4,82,65,48,45,38,28,87,46,15,30.23,30.18,30.13,10,10,10,7,1,,0.00,0,,63
2011-10-5,82,68,53,54,49,46,88,57,28,30.24,30.19,30.13,10,9,3,10,3,21,0.00,0,,71
2011-10-6,82,70,57,57,54,52,88,65,35,30.23,30.18,30.14,10,10,10,12,3,16,0.00,0,,65
2011-10-7,84,72,60,63,58,54,83,67,37,30.27,30.23,30.18,10,10,10,12,5,18,0.00,1,,61
2011-10-8,78,71,64,61,60,57,88,70,47,30.28,30.23,30.18,10,10,7,16,8,28,0.00,2,Rain,56
2011-10-9,71,66,62,64,60,54,94,77,56,30.19,30.13,30.03,10,10,5,15,10,24,0.00,5,Rain,44
2011-10-10,69,69,69,68,68,68,94,94,94,29.84,29.81,29.77,7,5,2,13,9,20,0.00,8,Rain,55
2011-10-11,78,73,68,72,68,64,100,91,74,29.83,29.80,29.76,10,7,1,10,5,17,0.00,8,Rain,59
2011-10-12,71,68,64,64,64,64,100,90,78,29.87,29.83,29.80,10,7,2,8,2,,0.00,8,Rain,292
2011-10-13,82,72,62,66,62,55,100,80,39,29.83,29.79,29.68,10,6,0,13,2,25,0.00,4,Fog-Rain,242
2011-10-14,78,68,59,61,53,39,100,67,24,29.96,29.89,29.82,10,9,3,12,3,16,0.00,0,,313
2011-10-15,84,68,53,61,50,41,94,62,23,30.11,30.06,30.02,10,10,10,9,1,,0.00,0,,346
2011-10-16,86,70,55,57,51,45,94,60,25,30.17,30.12,30.06,10,10,10,7,1,,0.00,0,,70
2011-10-17,86,70,53,64,56,52,100,67,31,30.07,30.00,29.90,10,10,7,7,2,,0.00,0,,146
2011-10-18,77,70,62,72,66,59,94,90,78,29.89,29.77,29.61,10,9,0,7,2,,0.00,4,Rain,99
2011-10-19,69,60,51,68,55,39,100,79,42,29.76,29.59,29.49,10,9,2,15,7,25,0.00,6,Rain,268
2011-10-20,62,52,42,43,38,36,87,60,37,30.07,29.98,29.87,10,10,10,14,7,20,0.00,0,,267
2011-10-21,68,54,41,43,39,32,100,65,28,30.20,30.14,30.09,10,10,10,9,2,18,0.00,0,,314
2011-10-22,68,54,41,45,40,36,93,65,30,30.15,30.10,30.05,10,10,10,8,1,,0.00,0,,7
2011-10-23,71,56,42,48,44,41,93,69,33,30.13,30.08,30.03,10,10,10,7,1,,0.00,0,,40
2011-10-24,77,60,44,48,45,43,93,67,32,30.18,30.12,30.08,10,10,7,9,1,16,0.00,0,,334
2011-10-25,78,63,48,54,47,41,94,64,26,30.25,30.19,30.14,10,10,5,7,1,,0.00,0,,88
2011-10-26,59,52,50,55,50,46,94,89,82,30.18,30.14,30.11,10,10,7,0,0,,0.00,0,,-1
2011-10-27,78,69,60,61,56,50,88,61,36,29.96,29.93,29.90,10,10,10,6,1,,0.00,5,,221
2011-10-28,78,66,55,64,59,54,100,77,54,29.99,29.94,29.89,10,9,4,6,1,,0.00,3,,246
2011-10-29,66,60,55,61,47,30,88,63,28,30.04,29.98,29.91,10,10,7,17,9,24,0.00,3,,333
2011-10-30,66,54,42,45,36,32,70,54,37,30.26,30.20,30.15,10,10,10,14,5,20,0.00,0,,58
2011-10-31,71,61,51,54,49,43,77,67,53,30.21,30.15,30.08,10,10,10,9,5,,0.00,6,,43